Flag for U.S.A. Weather past 2 weeks in Lansing, Michigan, U.S.A.

Now
29 °F

Partly sunny.


Feels Like: 19 °F
Forecast: 17 / 28 °F
Wind: 13 mph from North

Location: Capital City Airport

Current Time: Mar 27, 2015 at 6:16:20 PM

Latest Report: Mar 27, 2015 at 4:53 PM


Visibility: 10 mi

Pressure: 30.09 "Hg

Humidity: 31%

Dew point: 2 °F

Location of LansingLocation

Historic Weather in Lansing — Graph

°F

Lansing temperature yesterday

Maximum temperature yesterday: 40 °F (at 12:53 PM)
Minimum temperature yesterday: 29 °F (at 11:53 PM)
Average temperature yesterday: 36 °F

Past Weeks' High & Low Weather Summary

 TemperatureHumidityPressure
High69 °F (Mar 16, 2:53 PM)97% (Mar 14, 1:53 AM)30.57 "Hg (Mar 14, 1:53 AM)
Low14 °F (Mar 24, 7:53 AM)24% (Mar 24, 1:53 PM)29.72 "Hg (Mar 16, 7:53 PM)
Average37 °F57%30.14 "Hg
* Reported Mar 12 4:53 PM — Mar 27 4:53 PM, Lansing, Weather by CustomWeather, © 2015

Note: Actual official high and low records may vary slightly from our data, if they occured in-between our weather recording intervals... More about our weather records

Advertising

Lansing weather history for previous 24 hours

 ConditionsComfort  
Time TempWeatherWind HumidityBarometerVisibility
4:53 PM
Fri, Mar 27
29 °FPartly sunny.13 mph31%30.09 "Hg10 mi
3:53 PM26 °FPartly sunny.10 mph33%30.09 "Hg10 mi
2:53 PM27 °FPartly sunny.12 mph34%30.10 "Hg10 mi
1:53 PM27 °FLight snow. Overcast.12 mph37%30.10 "Hg9 mi
12:53 PM22 °FMostly cloudy.12 mph55%30.11 "Hg10 mi
11:53 AM22 °FMostly cloudy.12 mph52%30.10 "Hg10 mi
10:53 AM21 °FMore clouds than sun.15 mph52%30.10 "Hg10 mi
9:53 AM21 °FOvercast.14 mph57%30.08 "Hg10 mi
8:53 AM21 °FOvercast.12 mph62%30.08 "Hg10 mi
7:53 AM20 °FOvercast.12 mph62%30.07 "Hg10 mi
7:03 AM20 °FMostly cloudy.13 mph62%30.03 "Hg10 mi
6:53 AM20 °FMostly cloudy.10 mph68%30.06 "Hg10 mi
5:53 AM21 °FLight snow. Overcast.12 mph68%30.06 "Hg8 mi
4:53 AM21 °FOvercast.12 mph62%30.05 "Hg10 mi
3:53 AM22 °FOvercast.14 mph66%30.04 "Hg10 mi
2:53 AM24 °FOvercast.12 mph65%30.03 "Hg10 mi
1:53 AM27 °FMostly cloudy.13 mph63%30.02 "Hg10 mi
12:53 AM28 °FOvercast.14 mph66%30.01 "Hg10 mi
11:53 PM
Thu, Mar 26
29 °FOvercast.10 mph66%30.00 "Hg10 mi
10:53 PM31 °FMostly cloudy.13 mph67%29.99 "Hg10 mi
9:53 PM32 °FOvercast.10 mph66%29.98 "Hg10 mi
8:53 PM34 °FOvercast.13 mph67%29.96 "Hg10 mi
7:53 PM35 °FOvercast.14 mph61%29.95 "Hg10 mi
6:53 PM36 °FOvercast.14 mph62%29.94 "Hg10 mi
Weather by CustomWeather, © 2015

See weather overviewHow to use our weather pages